STARLINK-11580, 63011

Orbit data source: Space-Track

STARLINK-11580, 63011 is a payload satellite owned by SpaceX/Seattle (US) in LEO that was launched on Sat, 15 Feb 2025 UTC via an FALCON 9 launch vehicle from the Air Force Eastern Test Range (AFETR). Payload-class satellites include a variety of spacecraft equipped with specific instruments for various scientific and technological missions. These include communications satellites like Starlink; space stations such as the ISS; scientific satellites like the Hubble; Earth observation satellites from companies like Planet Labs, Umbra, and HawkEye 360; GPS; miniature CubeSats for education and research; and military/defense satellites.

Loading next visibility...
Identifier
63011, 2025-032G
Orbit
LEO
Country
Flag of USUS
Related business
Manufacturer
SpaceX/Seattle
Mission
Operational Commercial Communications
Bus & Motor
STARLINK V2MD, Unknown motor
Mass
960 kg wet, ~910 kg dry
Launch date (UTC)
2025-02-15 (1 year ago)
Launch vehicle
FALCON 9
Launch site
Air Force Eastern Test Range (AFETR)
Object type
Payload
Rocket body
Debris
Shape & HBR
Box + 2 Pan, 18.1 m
Radar Cross Section
36.964 m², Large (>1 m²)

Expand to show TLE details & history
Last TLE update: 1 day ago

TLE from 1 day ago
0 STARLINK-11580
1 63011U 25032G   26170.72457454  .00160635  00000-0  12249-2 0  9998
2 63011  43.0001 300.0950 0003467 259.6652 100.3825 15.70960173 78118
Epoch: 2026-06-19T17:23Z
TLE epoch observation values (Epoch: 2026-06-19T17:23:23.240Z)
Latitude
-0°
Longitude
131.29873°
Altitude
356.344 km
Speed
7.697 km/s
True Right ascension
20h 00m 22s
True Declination
0° 00' 00"
Sunlit
Object was in full shadow at epoch
Visualization orbit readout
Latitude
Unknown
Longitude
Unknown
Altitude
Unknown
Speed
Unknown
Apparent Right ascension
Unknown
Apparent Declination
Unknown
Sunlit
N/A
Visualization observer readout
Local Sidereal Time
10:20:27
Azimuth
Unknown
Elevation
Unknown
Doppler factor
Unknown
Orbital elements
Apogee altitude
360.469 km
Perigee altitude
355.798 km
Semi-major axis
6,736.27 km
Eccentricity
0.00035
Inclination
43.0001°
RAAN
300.095°
Arg. of periapsis
259.6652°
True anomaly
100.42158°
Mean anomaly
100.3825°
Eccentric anomaly
100.40204°
Mean motion
3.92567 °/min
Orbital period
91.7 mins
BSTAR
0.0012249
Loading maneuver chart data...
Computing Atmospheric mass density...
Loading historical data...
Loading historical data...
Loading historical data...
Loading historical data...
Loading historical data...
Loading historical data...
Loading historical data...

Documentation

Showing up to 5 results
|